This demonstration page uses our WeatherBlox Daily Observations layout. Learn more.

Left ArrowRight Arrow

31.84235, -102.49876

Hourly Observations for May 2, 2021

Temp ( °F °C ) Dew Point ( °F °C ) Humidity (%) Winds ( mph kmh ) Pressure ( in mb ) Visibility ( mi km ) Precip ( " mm )
12:53 am 00:53 Clear 62 16.7 55 12.8 78 78 S 9 15 29.69 1005 10 16 0.00 0.00
1:53 am 01:53 Clear 60 15.6 56 13.3 86 86 SSE 8 13 29.66 1005 10 16 0.00 0.00
2:53 am 02:53 Clear 59 15 55 12.8 87 87 SE 9 15 29.62 1003 10 16 0.00 0.00
3:53 am 03:53 Clear 58 14.4 54 12.2 87 87 SSE 10 17 29.61 1003 10 16 0.00 0.00
4:53 am 04:53 Clear 58 14.4 53 11.7 84 84 S 12 19 29.58 1002 10 16 0.00 0.00
5:53 am 05:53 Clear 57 13.9 53 11.7 87 87 S 10 17 29.57 1002 10 16 0.00 0.00
6:53 am 06:53 Clear 56 13.3 53 11.7 90 90 S 8 13 29.57 1002 10 16 0.00 0.00
7:53 am 07:53 Sunny 57 13.9 54 12.2 90 90 S 9 15 29.57 1001 10 16 0.00 0.00
8:53 am 08:53 Sunny 59 15 53 11.7 81 81 SSW 10 17 29.58 1002 10 16 0.00 0.00
9:53 am 09:53 Sunny 67 19.4 52 11.1 59 59 WSW 13 20 29.58 1002 10 16 0.00 0.00
10:53 am 10:53 Sunny 74 23.3 51 10.6 45 45 W 10 17 29.56 1001 10 16 0.00 0.00
11:53 am 11:53 Sunny 82 27.8 42 5.6 24 24 W 21 33 29.54 1000 10 16 0.00 0.00
12:53 pm 12:53 Sunny 86 30 40 4.4 20 20 W 16 26 29.51 999 10 16 0.00 0.00
1:53 pm 13:53 Sunny 88 31.1 36 2.2 16 16 WNW 16 26 29.48 998 10 16 0.00 0.00
2:53 pm 14:53 Sunny 90 32.2 32 0 13 13 W 14 22 29.45 997 10 16 0.00 0.00
3:53 pm 15:53 Sunny 92 33.3 27 -2.8 10 10 W 22 35 29.43 997 10 16 0.00 0.00
4:53 pm 16:53 Sunny 91 32.8 21 -6.1 8 8 W 25 41 29.39 995 10 16 0.00 0.00
5:53 pm 17:53 undefined 91 32.8 21 -6.1 8 8 W 22 35 29.39 995 10 16 0.00 0.00
6:53 pm 18:53 undefined 89 31.7 21 -6.1 8 8 W 25 41 29.39 995 10 16 0.00 0.00
7:53 pm 19:53 Mostly Cloudy 86 30 24 -4.4 10 10 W 15 24 29.39 995 9 14 0.00 0.00
8:53 pm 20:53 Cloudy 80 26.7 29 -1.7 15 15 W 8 13 29.41 996 10 16 0.00 0.00
9:53 pm 21:53 Cloudy 80 26.7 27 -2.8 14 14 WSW 9 15 29.42 996 10 16 0.00 0.00
10:53 pm 22:53 Cloudy 79 26.1 27 -2.8 15 15 WSW 14 22 29.43 997 10 16 0.00 0.00
11:53 pm 23:53 undefined 76 24.4 29 -1.7 18 18 W 10 17 29.42 996 9 14 0.00 0.00

Powered by AerisWeather